KC9MWQ-13 Weather Reports


time (UTC)temp
C
wind
direction
speed
KPH
gust
KPH
rain 1hr
cm
rain 24hr
cm
rain mn
cm
humidity
%
barometer
mb
20260505010246 21 246 12.9 16.1 0.00 0.00 0.00 58 1003.2
20260505005743 21 235 9.7 12.9 0.00 0.00 0.00 58 1003.3
20260505005234 21 249 3.2 3.2 0.00 0.00 0.00 59 1003.2
20260505004731 21 250 1.6 3.2 0.00 0.00 0.00 59 1003.1
20260505004227 21 288 1.6 3.2 0.00 0.00 0.00 57 1003.1
20260505003725 21 241 3.2 3.2 0.00 0.00 0.00 58 1003.2
20260505003223 21 209 9.7 12.9 0.00 0.00 0.00 56 1003.2
20260505002718 22 235 8.0 9.7 0.00 0.00 0.00 56 1003.2
20260505002216 22 283 6.4 8.0 0.00 0.00 0.00 55 1003.0
20260505001714 22 212 14.5 17.7 0.00 0.00 0.00 55 1003.2
20260505001211 22 274 3.2 3.2 0.00 0.00 0.00 58 1002.8
20260505000708 22 238 22.5 25.7 0.00 0.00 0.00 57 1002.9
20260505000206 22 230 4.8 12.9 0.00 0.00 0.00 59 1002.7
20260504235702 21 263 6.4 9.7 0.00 0.00 0.00 64 1002.8
20260504235158 21 247 11.3 12.9 0.00 0.00 0.00 66 1002.9
20260504234656 21 254 8.0 9.7 0.00 0.00 0.00 67 1002.8
20260504234153 21 212 4.8 4.8 0.00 0.00 0.00 68 1003.1
20260504233648 21 278 1.6 3.2 0.00 0.00 0.00 68 1003.1
20260504233144 21 218 6.4 9.7 0.00 0.00 0.00 67 1003.3
20260504232642 21 203 8.0 12.9 0.00 0.00 0.00 68 1003.3
20260504232139 21 274 9.7 11.3 0.00 0.00 0.00 67 1003.3
20260504231637 21 243 6.4 8.0 0.00 0.00 0.00 67 1003.4
20260504231133 22 309 9.7 14.5 0.00 0.00 0.00 66 1003.5
20260504230629 22 149 8.0 11.3 0.00 0.00 0.00 65 1003.6
20260504230128 22 286 11.3 14.5 0.00 0.00 0.00 65 1003.7
20260504225626 22 185 16.1 17.7 0.00 0.00 0.00 64 1003.9
20260504225121 22 221 11.3 16.1 0.00 0.00 0.00 66 1003.8
20260504224619 22 250 8.0 8.0 0.00 0.00 0.00 66 1003.7
20260504224115 22 162 14.5 20.9 0.00 0.00 0.00 65 1003.8
20260504223612 22 217 11.3 14.5 0.00 0.00 0.00 63 1003.9
20260504223107 22 192 6.4 9.7 0.00 0.00 0.00 65 1004.0
20260504222605 21 205 4.8 11.3 0.00 0.00 0.00 67 1004.2
20260504222102 22 263 9.7 11.3 0.00 0.00 0.00 66 1004.1
20260504221559 22 217 9.7 12.9 0.00 0.00 0.00 61 1004.1
20260504221055 22 250 3.2 3.2 0.00 0.00 0.00 61 1004.0
20260504220552 22 203 11.3 14.5 0.00 0.00 0.00 60 1004.1
20260504220049 23 275 6.4 8.0 0.00 0.00 0.00 59 1004.2
20260504215546 23 216 11.3 16.1 0.00 0.00 0.00 57 1004.1
20260504215043 23 198 9.7 11.3 0.00 0.00 0.00 57 1004.2
20260504214539 22 227 16.1 29.0 0.00 0.00 0.00 58 1004.4
20260504214036 22 239 6.4 8.0 0.00 0.00 0.00 60 1004.2
20260504213532 22 295 6.4 9.7 0.00 0.00 0.00 58 1004.6
20260504213029 23 255 14.5 24.1 0.00 0.00 0.00 56 1004.5
20260504212525 23 251 17.7 22.5 0.00 0.00 0.00 55 1004.4
20260504212023 23 264 3.2 3.2 0.00 0.00 0.00 56 1004.3
20260504211519 23 234 12.9 22.5 0.00 0.00 0.00 52 1004.4
20260504211017 23 268 9.7 14.5 0.00 0.00 0.00 55 1004.1
20260504210514 23 273 6.4 11.3 0.00 0.00 0.00 54 1004.3
20260504210010 23 275 9.7 16.1 0.00 0.00 0.00 53 1004.4
20260504205508 24 268 8.0 12.9 0.00 0.00 0.00 55 1004.3
20260504205006 24 280 3.2 4.8 0.00 0.00 0.00 58 1004.5
20260504204504 23 274 11.3 16.1 0.00 0.00 0.00 54 1004.2
20260504204003 23 311 9.7 14.5 0.00 0.00 0.00 56 1004.3
20260504203500 24 269 4.8 9.7 0.00 0.00 0.00 54 1004.4
20260504202956 24 285 1.6 3.2 0.00 0.00 0.00 57 1004.4
20260504202452 23 224 4.8 4.8 0.00 0.00 0.00 59 1004.5
20260504201950 23 281 4.8 8.0 0.00 0.00 0.00 58 1004.5
20260504201447 23 262 9.7 14.5 0.00 0.00 0.00 58 1004.3
20260504200944 23 168 11.3 12.9 0.00 0.00 0.00 57 1004.3
20260504200441 23 281 17.7 24.1 0.00 0.00 0.00 57 1004.5
20260504195937 23 281 12.9 16.1 0.00 0.00 0.00 58 1004.6
20260504195433 23 286 3.2 4.8 0.00 0.00 0.00 59 1004.6
20260504194930 23 287 6.4 9.7 0.00 0.00 0.00 57 1004.8
20260504194426 23 224 12.9 20.9 0.00 0.00 0.00 58 1004.6
20260504193922 23 273 11.3 12.9 0.00 0.00 0.00 58 1004.5
20260504193419 22 249 4.8 8.0 0.00 0.00 0.00 61 1004.9
20260504192918 23 269 6.4 8.0 0.00 0.00 0.00 57 1004.9
20260504192415 23 209 8.0 11.3 0.00 0.00 0.00 56 1004.5
20260504191914 23 275 4.8 8.0 0.00 0.00 0.00 58 1004.7
20260504191411 23 292 8.0 11.3 0.00 0.00 0.00 59 1004.9
20260504190906 22 240 11.3 17.7 0.00 0.00 0.00 58 1004.8
20260504190402 22 268 11.3 22.5 0.00 0.00 0.00 59 1004.9
20260504185859 23 185 6.4 9.7 0.00 0.00 0.00 59 1005.0
20260504185357 24 201 12.9 22.5 0.00 0.00 0.00 55 1004.9
20260504184853 25 294 9.7 12.9 0.00 0.00 0.00 55 1004.9
20260504184348 24 265 8.0 9.7 0.00 0.00 0.00 56 1005.1
20260504183844 24 283 8.0 11.3 0.00 0.00 0.00 56 1005.0
20260504183342 23 259 4.8 9.7 0.00 0.00 0.00 57 1005.0
20260504182839 23 266 4.8 8.0 0.00 0.00 0.00 56 1004.9
20260504182337 23 307 11.3 14.5 0.00 0.00 0.00 57 1005.0
20260504181833 23 244 8.0 11.3 0.00 0.00 0.00 58 1004.9
20260504181331 23 280 3.2 4.8 0.00 0.00 0.00 61 1004.8
20260504180830 23 239 9.7 14.5 0.00 0.00 0.00 58 1005.1
20260504180328 23 191 11.3 17.7 0.00 0.00 0.00 58 1005.2
20260504175826 23 264 6.4 8.0 0.00 0.00 0.00 59 1005.1
20260504175322 23 195 9.7 11.3 0.00 0.00 0.00 60 1005.1
20260504174821 23 197 14.5 22.5 0.00 0.00 0.00 60 1004.8
20260504174318 23 230 4.8 8.0 0.00 0.00 0.00 60 1005.1
20260504173814 23 249 8.0 11.3 0.00 0.00 0.00 61 1005.0
20260504173311 23 277 8.0 9.7 0.00 0.00 0.00 62 1005.0
20260504172808 23 256 3.2 4.8 0.00 0.00 0.00 62 1005.2
20260504172305 23 295 4.8 8.0 0.00 0.00 0.00 63 1005.1
20260504171800 23 306 4.8 8.0 0.00 0.00 0.00 62 1005.4
20260504171258 22 285 4.8 4.8 0.00 0.00 0.00 68 1005.2
20260504170755 22 212 9.7 12.9 0.00 0.00 0.00 62 1005.4
20260504170252 22 206 4.8 4.8 0.00 0.00 0.00 64 1005.6
20260504160210 21 200 16.1 20.9 0.00 0.00 0.00 66 1006.3
20260504151138 19 249 9.7 11.3 0.00 0.00 0.00 72 1007.2
20260504150636 19 205 6.4 8.0 0.00 0.00 0.00 73 1006.9
20260504150132 18 275 4.8 4.8 0.00 0.00 0.00 74 1007.1
20260504141101 16 261 8.0 11.3 0.00 0.00 0.00 77 1007.2
20260504140557 16 196 6.4 8.0 0.00 0.00 0.00 78 1007.4
20260504130522 14 225 8.0 9.7 0.00 0.00 0.00 80 1008.0
20260504110409 9 249 4.8 4.8 0.00 0.00 0.00 87 1008.1
20260504100326 10 250 1.6 3.2 0.00 0.00 0.00 86 1008.1
20260504081720 10 266 1.6 1.6 0.00 0.00 0.00 85 1008.4
20260504081216 10 247 4.8 8.0 0.00 0.00 0.00 85 1008.5
20260504080712 10 271 3.2 3.2 0.00 0.00 0.00 85 1008.6
20260504080209 9 224 6.4 9.7 0.00 0.00 0.00 86 1008.7
20260504070137 10 231 3.2 4.8 0.00 0.00 0.00 84 1009.4
20260504050525 10 229 4.8 4.8 0.00 0.00 0.00 83 1010.0
20260504050022 10 239 4.8 4.8 0.00 0.00 0.00 84 1010.1
20260504045519 10 161 6.4 8.0 0.00 0.00 0.00 83 1010.1
20260504045015 10 204 6.4 8.0 0.00 0.00 0.00 84 1010.0
20260504044512 10 229 4.8 4.8 0.00 0.00 0.00 83 1010.1
20260504044009 11 232 4.8 4.8 0.00 0.00 0.00 82 1010.2
20260504043506 11 219 6.4 8.0 0.00 0.00 0.00 82 1010.2
20260504043004 11 261 4.8 8.0 0.00 0.00 0.00 82 1010.2
20260504042500 11 229 3.2 3.2 0.00 0.00 0.00 82 1010.2
20260504041957 11 184 11.3 14.5 0.00 0.00 0.00 82 1010.3
20260504041453 11 242 4.8 4.8 0.00 0.00 0.00 82 1010.4
20260504040949 11 219 8.0 9.7 0.00 0.00 0.00 82 1010.4
20260504040447 11 187 4.8 4.8 0.00 0.00 0.00 81 1010.5
20260504035943 11 234 4.8 4.8 0.00 0.36 0.36 81 1010.5
20260504035441 11 270 1.6 3.2 0.00 0.36 0.36 81 1010.5
20260504034937 11 230 4.8 8.0 0.00 0.36 0.36 80 1010.5
20260504034435 11 256 4.8 4.8 0.00 0.36 0.36 81 1010.7
20260504033931 11 262 1.6 1.6 0.00 0.36 0.36 80 1010.9
20260504033429 11 191 6.4 9.7 0.00 0.36 0.36 80 1010.7
20260504032926 11 202 6.4 8.0 0.00 0.36 0.36 81 1011.1
20260504032423 11 170 3.2 3.2 0.00 0.36 0.36 81 1010.9
20260504031919 11 266 3.2 4.8 0.00 0.36 0.36 80 1011.0
20260504031417 11 220 4.8 4.8 0.00 0.36 0.36 79 1011.0
20260504030913 11 234 4.8 4.8 0.00 0.36 0.36 79 1011.1
20260504030410 11 191 8.0 11.3 0.00 0.36 0.36 79 1011.0
20260504025906 11 229 4.8 4.8 0.00 0.36 0.36 78 1011.0
20260504025403 12 218 3.2 4.8 0.00 0.36 0.36 78 1011.0
20260504024900 12 229 6.4 9.7 0.00 0.36 0.36 78 1011.2
20260504024356 12 253 3.2 3.2 0.00 0.36 0.36 79 1011.2
20260504023854 12 248 3.2 4.8 0.00 0.36 0.36 79 1011.2
20260504023350 12 212 4.8 4.8 0.00 0.36 0.36 80 1011.3
20260504022845 11 248 3.2 3.2 0.00 0.36 0.36 82 1011.0
20260504022343 11 233 3.2 3.2 0.00 0.36 0.36 86 1011.1
20260504021839 11 276 0.0 1.6 0.00 0.36 0.36 87 1011.3
20260504021337 11 265 0.0 1.6 0.00 0.36 0.36 88 1011.2
20260504020834 11 274 0.0 1.6 0.00 0.36 0.36 89 1011.3
20260504020331 11 264 0.0 1.6 0.00 0.36 0.36 89 1011.3
20260504015826 11 266 0.0 0.0 0.00 0.36 0.36 89 1011.3
20260504015323 10 271 1.6 1.6 0.00 0.36 0.36 91 1011.2
20260504014819 10 269 1.6 1.6 0.00 0.36 0.36 92 1011.3
20260504014315 10 280 0.0 0.0 0.00 0.36 0.36 92 1011.4
20260504013813 10 276 0.0 0.0 0.00 0.36 0.36 92 1011.4
20260504013311 10 286 0.0 0.0 0.00 0.36 0.36 91 1011.2
20260504012807 10 280 0.0 0.0 0.00 0.36 0.36 91 1011.4
20260504012305 10 275 1.6 1.6 0.00 0.36 0.36 91 1011.4
20260504011802 10 276 0.0 1.6 0.00 0.36 0.36 91 1011.4
20260504011258 10 270 1.6 1.6 0.00 0.36 0.36 90 1011.4
20260504010754 10 244 3.2 3.2 0.00 0.36 0.36 90 1011.2